Temperature
20 19 20 19 19 19 19 19 19 19 19 19 19 19 19 19 19 19 19 19 19 19 19 19 19 19 19 19 19 19 19 19 19 19 19 18 18 18 18 18 18 17 18
20 19 20 19 19 19 19 19 19 19 19 19 19 19 19 19 19 19 19 19 19 19 19 19 19 18 19 19 19 19 19 19 19 18 18 18 18 18 18 18 18 18 18
20 19 20 19 19 19 19 19 19 19 19 19 19 19 19 19 19 19 19 19 19 19 19 19 19 18 19 19 19 19 19 19 18 18 18 18 18 18 18 18 18 18 18
20 19 19 20 19 19 19 19 19 19 19 19 19 19 19 19 19 19 19 19 19 19 19 19 19 18 19 19 19 19 19 19 18 18 18 18 18 18 18 18 18 18 18
20 19 19 20 20 19 19 19 19 19 19 19 19 19 19 19 19 19 19 19 19 19 19 19 19 19 19 19 19 19 19 19 18 18 18 18 18 18 18 18 18 18 18
20 19 19 20 20 19 19 19 19 19 19 19 19 19 19 19 19 19 19 19 19 19 19 19 19 19 19 19 19 19 19 18 18 18 18 18 18 18 18 18 18 18 18
20 20 19 20 20 19 19 19 19 19 19 19 19 19 19 19 19 19 19 19 19 19 19 19 19 18 19 19 19 19 18 18 18 18 18 18 18 18 18 18 18 18 18
20 20 19 20 20 19 19 19 19 19 19 19 19 19 19 19 19 19 19 19 19 18 18 18 18 18 18 18 18 18 18 18 18 18 18 18 18 18 18 18 18 18 18
20 20 19 19 19 20 19 19 19 19 19 19 19 19 19 19 19 19 19 19 18 18 18 18 18 18 18 18 18 18 18 18 18 18 18 18 18 18 18 18 18 18 18
20 20 19 19 19 19 19 19 19 19 19 19 19 19 19 19 19 19 18 18 18 18 18 18 18 18 18 18 18 18 18 18 18 18 18 18 18 18 18 18 18 18 18
20 20 20 19 19 19 19 19 19 19 19 19 19 19 19 18 18 18 18 18 18 18 18 18 18 18 18 18 18 18 18 18 18 18 18 18 18 18 18 18 18 18 18
20 20 20 20 19 19 19 19 19 18 18 18 18 18 18 18 18 18 18 18 18 18 18 18 18 18 18 18 18 18 18 18 18 18 18 18 18 18 18 18 18 18 18
20 20 20 20 19 19 19 19 19 19 18 18 18 18 18 18 18 18 18 18 18 18 18 18 18 18 18 18 18 18 18 18 18 18 18 18 18 18 18 18 18 18 18
21 20 20 20 20 19 19 19 19 19 19 19 18 18 18 18 18 18 18 18 18 18 18 18 18 18 18 18 18 18 18 18 18 18 18 18 18 18 18 18 18 18 18
21 20 20 20 20 20 20 19 19 19 19 19 18 18 18 18 18 18 18 18 18 18 18 18 18 18 18 18 18 18 18 18 18 18 18 18 18 18 18 18 18 18 18
21 20 20 20 20 20 20 20 19 19 19 19 19 18 18 18 18 18 18 19 18 18 18 18 18 18 18 18 18 18 18 18 18 18 18 18 18 18 18 18 18 18 18
21 20 20 20 20 20 20 19 19 19 19 19 19 18 18 18 18 18 18 18 18 18 18 18 18 18 18 18 18 18 18 18 18 17 17 17 17 18 18 18 18 18 18
20 20 21 20 20 20 20 20 19 19 19 19 19 18 18 18 18 18 18 18 18 18 18 18 18 18 18 18 18 18 18 18 17 17 17 17 17 17 17 17 17 17 17
21 21 21 21 21 20 20 20 19 19 19 19 19 18 18 19 18 18 18 18 18 18 18 18 18 18 18 18 18 18 18 18 17 17 17 17 17 17 17 17 17 17 17
21 21 21 21 21 20 20 20 19 19 19 19 19 19 18 18 18 18 18 18 18 18 18 18 18 18 18 18 18 18 18 18 17 17 17 17 17 17 17 17 17 17 17
21 21 21 20 21 20 20 19 19 19 19 19 19 19 19 19 18 18 18 18 18 18 18 18 17 17 17 17 18 18 18 17 17 17 17 17 17 17 17 17 17 17 17
21 21 21 21 21 21 20 20 19 19 19 19 19 19 19 18 18 18 18 18 18 18 18 17 17 17 17 17 17 18 18 18 17 17 17 17 17 17 17 17 17 17 17
21 21 21 21 21 20 20 20 19 19 19 19 18 18 19 18 18 18 18 18 18 18 18 18 17 17 17 17 17 18 19 19 18 17 17 17 17 17 17 17 17 17 17
21 21 21 21 21 21 20 20 19 19 19 19 18 18 18 18 18 18 18 18 18 17 17 17 17 17 17 17 17 17 17 18 18 18 17 17 17 16 17 17 17 17 17
22 21 21 21 21 21 20 20 20 19 19 19 18 18 18 18 18 18 18 18 18 17 17 17 17 17 17 17 17 17 17 17 17 18 18 17 17 17 16 16 16 16 16
22 21 21 21 21 20 20 20 20 19 19 19 18 18 18 18 18 18 18 17 17 17 17 17 17 17 17 17 17 17 17 17 17 18 18 17 17 17 16 16 16 16 16
Wind_Speed
4 7 9 6 5 6 6 6 8 8 8 8 10 10 10 10 11 11 12 12 12 12 11 11 12 12 12 11 11 10 10 9 9 10 10 10 9 9 10 10 10 9 12
7 8 10 7 6 6 7 8 8 8 8 8 9 10 10 10 10 11 11 12 12 11 11 11 12 11 11 11 11 10 10 10 10 10 10 10 9 9 9 8 6 9 11
8 9 10 8 7 7 8 8 8 8 8 8 9 9 9 9 10 10 11 11 11 11 11 11 11 10 10 10 10 10 10 10 10 9 9 9 10 9 9 9 8 10 11
9 9 9 9 8 8 8 8 8 8 8 8 8 9 9 8 9 9 9 9 9 10 10 10 10 9 9 9 9 9 9 9 9 9 8 7 8 10 9 9 9 9 10
8 9 11 9 8 8 8 8 8 8 8 8 8 8 8 8 8 8 8 8 8 9 9 9 9 8 8 8 8 8 8 8 9 9 6 6 7 11 10 9 9 9 10
8 8 11 8 8 7 7 7 7 7 7 7 7 7 7 7 7 8 8 8 8 8 8 8 8 8 7 8 7 7 7 8 9 7 6 6 7 11 10 9 9 9 9
8 8 11 9 8 7 7 7 7 7 6 6 6 6 5 5 6 7 7 7 7 7 7 7 7 7 7 7 7 7 7 7 7 5 6 6 7 11 10 9 9 9 9
8 8 10 9 7 7 7 7 7 6 6 6 5 5 4 5 5 5 6 6 6 6 7 7 7 6 6 6 6 6 6 8 7 5 5 5 9 9 9 9 9 8 9
7 6 7 8 8 8 6 6 6 6 5 5 5 5 4 4 4 5 5 5 5 5 6 6 6 6 6 6 6 6 6 8 7 5 6 5 10 9 8 8 9 9 9
6 5 6 6 6 7 7 6 5 5 4 4 4 4 3 4 5 5 6 5 5 5 6 7 7 6 6 6 6 7 8 9 8 6 5 6 10 9 9 8 9 9 9
5 4 4 5 5 5 5 7 5 5 4 4 4 4 2 2 3 5 4 4 3 4 5 6 7 7 8 9 8 8 9 7 6 4 4 7 10 10 9 9 9 9 9
6 5 4 4 4 4 4 5 4 4 4 2 2 2 2 2 1 3 6 4 4 4 5 6 7 10 10 7 9 10 7 6 5 4 5 8 8 8 9 9 9 9 8
6 5 5 4 4 3 3 3 2 2 3 2 2 1 1 1 1 2 3 4 5 5 4 6 7 6 5 4 4 5 6 5 3 3 6 9 7 7 8 8 9 9 9
6 6 5 4 4 3 2 2 2 2 2 2 3 1 1 1 0 1 1 1 2 2 2 2 2 3 4 4 4 4 4 4 3 3 6 8 7 7 7 7 8 8 9
6 6 6 5 4 4 3 1 2 2 1 2 2 2 1 1 1 1 2 1 1 1 2 1 1 2 2 3 3 3 3 3 3 4 5 8 7 6 6 6 7 8 8
5 6 6 6 6 5 4 2 1 2 2 1 2 2 1 1 1 1 1 1 1 1 2 1 2 2 1 1 2 3 3 3 3 3 4 6 8 6 6 5 5 6 7
5 6 6 6 6 5 4 3 2 2 2 1 2 2 1 1 1 1 2 2 2 2 2 2 2 2 1 1 2 2 2 2 3 3 4 4 6 7 6 5 4 4 5
5 6 5 5 6 5 4 3 2 1 1 1 1 2 1 1 1 1 1 2 2 1 1 1 1 1 1 0 1 1 2 2 3 3 4 4 3 4 6 6 4 4 4
6 6 6 6 5 5 4 3 3 2 1 1 1 1 1 1 1 1 1 2 1 1 1 1 2 1 0 0 1 2 2 2 3 3 3 3 3 3 3 6 6 4 4
6 7 7 7 6 6 5 4 3 2 2 2 1 1 0 1 1 0 1 2 1 1 1 2 1 1 1 1 1 1 1 2 2 2 3 3 3 4 3 4 5 6 5
7 8 8 7 7 6 4 4 4 3 3 2 2 2 1 0 1 0 1 2 1 1 1 1 0 1 0 1 1 1 2 2 2 2 2 2 3 3 4 4 4 4 5
9 8 8 8 8 7 5 4 3 3 3 3 2 2 2 1 1 1 0 0 0 0 0 0 0 1 0 1 2 2 2 3 3 2 2 3 3 3 4 4 4 4 4
9 9 8 8 8 8 7 5 4 4 3 3 3 3 2 2 1 1 0 1 1 1 1 0 1 1 1 1 2 2 2 1 1 3 2 3 2 2 2 3 3 4 4
9 9 8 8 8 8 8 6 6 5 4 4 3 3 2 2 1 1 1 1 1 1 0 1 0 1 2 1 1 1 2 2 2 1 2 3 3 2 2 2 2 3 4
9 9 8 8 7 8 8 8 7 6 5 3 3 3 2 2 2 1 1 1 1 1 1 1 1 2 1 2 2 1 1 2 3 3 2 1 2 2 1 2 1 2 2
8 8 8 8 7 7 8 8 8 7 5 4 4 3 3 2 2 2 1 1 1 1 0 1 1 1 2 2 3 2 2 2 2 3 3 3 2 1 1 1 1 1 1
Wind_Direction
125 125 122 118 103 89 89 106 108 107 112 116 124 130 131 136 140 140 142 140 139 139 139 138 137 137 138 139 141 141 141 141 139 137 133 133 135 139 142 147 156 143 127
125 125 125 119 105 92 90 103 107 105 112 115 122 128 130 132 136 139 139 141 142 142 142 139 140 138 140 142 144 145 147 148 148 146 145 147 145 145 145 150 160 128 137
123 126 128 116 105 94 91 99 106 105 108 114 118 126 128 131 136 138 139 141 144 145 144 143 143 143 142 145 148 149 153 154 153 155 167 160 147 150 153 152 148 139 146
124 126 120 116 109 101 96 98 102 104 105 111 114 121 125 130 136 139 141 144 144 146 146 146 147 147 148 149 151 154 156 158 160 176 177 155 149 147 158 159 157 153 153
122 121 115 119 112 107 101 100 100 104 105 107 113 117 123 130 138 141 142 145 146 149 151 149 150 151 149 150 151 154 156 161 176 197 165 152 148 145 160 162 160 159 159
125 123 118 124 117 110 106 101 99 102 105 109 114 116 120 126 136 141 143 149 152 155 155 153 150 151 150 150 152 155 162 177 197 184 165 166 150 147 162 167 167 164 166
126 121 122 125 123 116 110 107 104 99 101 106 112 116 119 121 134 142 143 147 151 155 158 158 157 155 154 155 160 166 175 198 212 184 171 169 147 147 163 170 174 173 172
125 122 123 130 130 126 118 110 102 103 101 104 104 104 112 118 126 138 142 146 151 156 161 164 163 162 165 170 172 179 191 217 203 192 185 167 138 155 171 175 180 181 180
124 125 125 134 136 136 126 114 111 108 103 104 106 102 108 117 129 141 145 150 156 165 168 170 168 171 177 181 186 200 212 228 229 195 188 172 144 165 179 185 189 188 189
129 130 131 132 132 139 137 130 122 114 111 110 107 110 123 152 158 161 168 157 161 171 177 180 184 183 186 189 194 207 220 226 224 202 195 162 153 173 187 194 196 194 195
137 139 136 131 133 133 130 129 143 141 139 159 148 137 173 163 140 160 126 136 159 174 182 192 196 196 196 195 200 210 218 220 210 206 187 146 161 181 193 199 199 202 203
150 152 142 144 140 139 133 133 148 148 139 154 126 141 162 132 122 124 122 148 168 175 182 188 202 207 215 202 195 209 210 211 214 196 160 147 166 184 195 199 202 206 208
155 154 153 155 152 153 146 138 130 132 130 136 103 106 116 139 143 141 148 162 174 184 189 179 203 211 207 207 212 202 206 214 210 190 146 146 167 185 194 199 202 207 211
161 163 164 159 154 154 146 137 144 139 125 113 113 100 104 99 60 90 118 125 152 150 165 198 202 198 212 212 212 216 208 209 200 186 139 143 162 183 195 199 200 205 208
166 169 166 162 156 159 163 186 146 135 117 110 101 112 94 97 76 90 88 78 88 113 151 169 188 177 193 203 204 202 209 196 206 196 155 153 168 181 195 204 210 212 214
174 170 162 165 162 166 171 178 162 149 129 94 95 83 67 51 51 65 101 91 77 66 64 75 101 119 122 142 170 175 194 182 187 202 191 169 174 181 192 200 211 215 217
181 174 170 169 165 170 178 183 167 156 144 109 95 94 65 60 67 26 62 81 71 70 79 83 89 97 106 125 145 168 182 182 177 189 204 193 179 175 180 189 196 204 212
184 178 179 178 168 166 171 180 165 157 128 111 97 93 78 52 58 38 47 62 59 67 80 80 64 84 91 117 140 177 176 174 182 191 197 199 203 192 179 182 191 200 203
188 186 182 185 177 175 174 176 175 161 146 141 112 87 91 80 101 121 71 52 62 58 53 39 68 7 64 158 196 180 186 180 187 189 189 197 194 200 194 168 185 193 205
188 191 191 188 185 184 182 182 184 171 174 164 136 106 100 118 109 290 112 69 51 67 49 52 52 27 324 262 252 174 202 184 191 194 204 184 185 192 198 189 194 195 196
192 196 197 199 190 191 192 195 188 183 186 176 166 138 157 235 171 287 27 96 37 73 16 10 50 147 314 306 249 203 188 192 189 195 216 204 183 184 184 189 212 212 193
196 199 199 200 195 196 191 196 195 196 192 183 173 149 172 192 224 188 226 195 114 138 148 321 306 321 312 263 279 263 220 191 192 186 191 191 186 182 184 185 203 214 231
200 200 201 201 194 195 191 189 186 186 195 182 184 174 171 185 198 253 201 282 281 265 118 275 288 291 299 266 288 290 285 269 160 159 178 176 179 195 210 203 209 219 226
200 197 198 198 196 194 194 196 195 196 203 199 193 172 170 178 192 207 231 262 280 303 350 276 34 289 279 276 251 288 311 333 284 220 183 167 174 196 235 239 225 208 218
197 193 188 188 191 194 197 198 205 214 214 203 188 168 189 176 198 217 206 212 225 273 342 326 341 306 280 288 290 273 268 251 257 268 258 219 202 199 224 240 247 231 206
196 193 188 184 189 192 198 203 206 211 210 201 189 180 191 187 193 199 203 216 229 259 261 275 286 270 298 306 299 291 286 280 284 275 267 250 243 224 221 251 240 233 199
Height
1518 1518 1517 1517 1517 1517 1516 1516 1516 1516 1517 1517 1517 1518 1518 1520 1521 1522 1523 1525 1526 1528 1529 1531 1533 1534 1536 1538 1539 1540 1542 1543 1544 1545 1547 1548 1549 1550 1551 1552 1553 1554 1554
1519 1519 1518 1518 1518 1518 1518 1518 1518 1518 1518 1519 1519 1520 1521 1522 1523 1524 1525 1526 1528 1529 1531 1532 1534 1535 1537 1539 1540 1541 1543 1544 1545 1546 1548 1549 1550 1551 1552 1553 1554 1555 1555
1520 1520 1520 1520 1520 1520 1520 1520 1520 1520 1520 1521 1521 1522 1523 1524 1525 1526 1527 1528 1529 1531 1532 1534 1536 1537 1538 1540 1541 1543 1544 1545 1546 1548 1549 1551 1551 1552 1553 1553 1554 1555 1556
1522 1522 1522 1521 1522 1522 1522 1522 1522 1522 1522 1523 1523 1524 1525 1526 1526 1528 1528 1530 1531 1532 1534 1535 1537 1538 1539 1541 1542 1543 1545 1546 1547 1549 1551 1553 1553 1552 1553 1554 1555 1556 1556
1524 1524 1523 1523 1524 1524 1524 1524 1524 1524 1524 1524 1525 1526 1526 1527 1528 1529 1530 1531 1532 1533 1535 1536 1537 1539 1540 1541 1543 1544 1545 1547 1548 1550 1552 1553 1553 1553 1553 1554 1555 1556 1557
1525 1526 1525 1525 1525 1525 1526 1526 1526 1526 1526 1526 1527 1527 1528 1529 1529 1530 1531 1532 1533 1534 1536 1537 1538 1539 1541 1542 1543 1544 1546 1547 1549 1551 1552 1553 1553 1553 1554 1555 1556 1557 1557
1527 1528 1527 1527 1527 1527 1527 1527 1527 1527 1527 1528 1528 1529 1530 1530 1531 1532 1532 1533 1534 1535 1536 1537 1539 1540 1541 1542 1544 1545 1546 1547 1550 1552 1552 1553 1553 1553 1554 1554 1556 1557 1557
1529 1529 1529 1528 1529 1529 1529 1529 1529 1529 1529 1530 1530 1530 1531 1531 1532 1533 1534 1534 1535 1536 1537 1538 1539 1540 1541 1543 1544 1545 1546 1548 1550 1552 1552 1553 1552 1553 1554 1554 1555 1557 1558
1530 1531 1531 1531 1531 1531 1531 1531 1531 1531 1531 1531 1531 1531 1532 1532 1533 1533 1534 1535 1535 1536 1537 1538 1539 1540 1541 1542 1543 1544 1546 1547 1550 1551 1552 1552 1552 1552 1553 1554 1555 1556 1557
1531 1532 1532 1533 1533 1533 1533 1532 1532 1533 1533 1533 1533 1533 1533 1533 1534 1534 1535 1535 1535 1536 1537 1537 1538 1540 1541 1542 1543 1544 1545 1547 1550 1551 1551 1551 1551 1552 1553 1554 1555 1556 1557
1532 1533 1533 1534 1534 1535 1535 1534 1534 1534 1534 1534 1534 1534 1534 1535 1535 1535 1535 1535 1536 1536 1537 1537 1538 1539 1540 1541 1542 1543 1544 1547 1548 1550 1550 1550 1550 1551 1552 1553 1554 1555 1556
1532 1533 1533 1534 1535 1536 1536 1536 1536 1536 1536 1536 1536 1536 1536 1536 1536 1536 1535 1536 1536 1536 1536 1536 1537 1538 1539 1541 1541 1542 1544 1546 1547 1548 1548 1548 1549 1550 1551 1552 1553 1554 1555
1532 1533 1533 1534 1535 1536 1537 1537 1537 1538 1537 1537 1537 1536 1536 1537 1537 1537 1537 1536 1536 1537 1537 1536 1537 1538 1539 1540 1541 1542 1543 1545 1546 1547 1547 1547 1548 1549 1550 1551 1552 1553 1554
1532 1533 1533 1534 1535 1536 1537 1538 1538 1538 1538 1538 1537 1537 1537 1537 1537 1537 1537 1537 1537 1537 1537 1537 1537 1538 1538 1539 1539 1541 1542 1543 1544 1545 1546 1546 1547 1548 1549 1550 1551 1552 1553
1532 1532 1533 1534 1535 1535 1536 1537 1539 1539 1539 1539 1538 1538 1537 1538 1537 1537 1537 1536 1537 1537 1537 1537 1537 1537 1537 1537 1538 1539 1540 1541 1542 1544 1544 1545 1546 1546 1547 1548 1549 1550 1551
1531 1532 1533 1534 1535 1535 1536 1537 1538 1539 1539 1539 1539 1538 1538 1538 1538 1537 1537 1537 1537 1537 1537 1537 1537 1537 1537 1537 1537 1538 1539 1540 1541 1542 1543 1544 1544 1545 1546 1547 1548 1548 1549
1531 1532 1533 1534 1535 1536 1537 1538 1539 1539 1540 1540 1539 1539 1538 1538 1538 1538 1538 1538 1537 1537 1537 1537 1537 1537 1537 1537 1537 1537 1538 1539 1539 1540 1541 1542 1543 1543 1544 1545 1546 1547 1547
1531 1531 1533 1534 1535 1536 1537 1537 1539 1539 1539 1540 1540 1539 1538 1538 1538 1538 1538 1538 1538 1538 1537 1537 1537 1537 1537 1537 1537 1537 1537 1537 1538 1539 1540 1540 1541 1543 1543 1543 1544 1545 1545
1530 1531 1532 1533 1534 1535 1536 1537 1538 1538 1539 1539 1539 1539 1538 1538 1538 1538 1538 1538 1538 1538 1537 1537 1537 1537 1537 1536 1536 1536 1536 1537 1537 1538 1538 1539 1539 1540 1542 1541 1542 1543 1544
1529 1530 1531 1532 1533 1534 1535 1536 1537 1538 1538 1539 1539 1538 1538 1538 1538 1538 1539 1538 1538 1538 1537 1537 1536 1536 1536 1535 1536 1536 1535 1536 1536 1537 1537 1538 1538 1539 1540 1541 1541 1541 1542
1527 1528 1529 1531 1532 1533 1534 1536 1536 1537 1538 1538 1538 1538 1538 1537 1538 1537 1538 1537 1537 1537 1536 1537 1536 1536 1536 1535 1536 1535 1535 1535 1535 1535 1536 1536 1536 1537 1538 1539 1540 1540 1540
1525 1526 1528 1529 1530 1531 1533 1534 1535 1536 1537 1537 1537 1537 1537 1537 1537 1537 1536 1537 1537 1536 1536 1535 1535 1536 1536 1535 1536 1535 1535 1536 1534 1535 1534 1534 1535 1536 1536 1537 1537 1538 1539
1523 1524 1526 1527 1528 1529 1531 1532 1534 1534 1535 1536 1536 1536 1536 1536 1536 1536 1536 1536 1536 1536 1536 1535 1534 1535 1535 1535 1535 1535 1534 1533 1534 1534 1533 1533 1534 1534 1535 1536 1536 1536 1536
1521 1522 1523 1525 1526 1527 1529 1530 1532 1533 1534 1534 1535 1535 1535 1535 1535 1535 1535 1535 1535 1535 1535 1535 1534 1534 1534 1535 1534 1533 1534 1533 1533 1533 1533 1533 1533 1533 1534 1534 1534 1534 1533
1519 1520 1521 1522 1523 1525 1527 1528 1529 1531 1532 1533 1533 1533 1534 1534 1534 1534 1534 1533 1533 1534 1534 1533 1533 1533 1534 1534 1534 1533 1533 1532 1533 1532 1532 1533 1532 1532 1532 1532 1532 1532 1531
1516 1518 1519 1520 1521 1522 1524 1526 1527 1528 1529 1530 1531 1532 1533 1533 1533 1533 1533 1532 1532 1533 1532 1532 1532 1532 1532 1532 1532 1533 1532 1532 1532 1532 1531 1531 1531 1531 1530 1530 1530 1530 1529